Погода Соболево

Погода Соболево : погода сейчас, прогноз погоды и архив. Всё, что Вы хотите узнать о погоде Соболево!

Поиск расширенной информации на нашем сайте:

Другие новости

Новости СМИ2

Главная страница сайта

Новости сайта

03.07.2017

Напоминаем, что на нашем специализированном сайте Метеоцентр.Азия вы можете получить высокодетализированные автоматические прогнозы погоды по пунктам России, СНГ и мира в авиационном формате (включающие направление и скорость ветра, видимость, явления погоды, количество и форму облачности, нижнюю и верхнюю границу облачности).


Погода Соболево - сегодня

Время (UTC), дата Ветер
(°,м/с) 
Видим.   Явления Облачность Т
(°С)
Тd
(°С)
f(%) Тe
(°С)
Pmin
(гПа)
dP
(гПа)
Po
(мм)
O2
(г/м3)
Тmin Tmax R s Состояние
почвы
03 17.02.18 090 (В) 20000 м    3/0 верхняя 
[Ci fib]
-6.2 -16 46 -8  996.4  0.1  745  308           
06 17.02.18 тихо ()   20000 м    4/0 средняя, верхняя 
[Ac trans|Ci fib]
-7.6 -14.5 58 -8  997.4  0.9  746  310           
12 17.02.18 060 (СВ) 20000 м    3/0 верхняя 
[Ci fib]
-18.9 -21.4 81 -23  999.3  0.8  747  325           
15 17.02.18 060 (СВ) 20000 м    3/0 верхняя 
[Ci fib]
-19.4 -21.7 82 -22  999.3  0.1  747  326           
18 17.02.18 050 (СВ) 20000 м    3/0 верхняя 
[Ci fib]
-19.2 -21.5 82 -22  999.7  0.3  747  325           
03 18.02.18 350 (С) 20000 м    3/0 верхняя 
[Ci fib]
-8.6 -16.1 55 -11  998.9  -0.9  747  312           
06 18.02.18 340 (С) 20000 м    3/0 верхняя 
[Ci fib]
-9.4 -15.6 61 -12  998.8  0.1  747  313           
12 18.02.18 300 (СЗ) 20000 м    3/0 верхняя 
[Ci fib]
-15.8 -18 83 -16  999.2  0.3  747  321           
15 18.02.18 060 (СВ) н/о    н/о 
-14.2 -16.6 82 -14  998.3  -0.8  746  319           
18 18.02.18 080 (В) 20000 м    ясно 
-16.1 -18.5 82 -16  998.2  -0.2  746  321           
03 19.02.18 120 (ЮВ) 20000 м  в посл. час ливневой снег  9/0 средняя 
[Ac As]
-7 -10.8 74 -7  996.4  -1.2  745  309           
06 19.02.18 170 (Ю) 4000 м  слаб. ливневой снег  10/10 300 м кучево-дожд. 
[Cb cap]
-7.9 -10.2 83 -8  996.2  -0.2  745  310           
09 19.02.18 170 (Ю) 4000 м  слаб. ливневой снег  10/10 300 м кучево-дожд. 
[Cb cap]
-8.7 -10.1 90 -8  996.5  0.3  745  311    -6.4     
12 19.02.18 тихо ()   4000 м  слаб. ливневой снег  10/10 300 м кучево-дожд. 
[Cb cap]
-9.1 -10.4 90 -9  996.8  0.4  745  312           
15 19.02.18 110 (В) 4000 м  слаб. ливневой снег  10/10 300 м кучево-дожд. 
[Cb cap]
-9 -10.3 90 -9  997.2  0.4  746  312           
18 19.02.18 280 (З) 4000 м  слаб. ливневой снег  10/10 300 м кучево-дожд. 
[Cb cap]
-6.4 -7.8 90 -10  998.1  0.9  746  309           
21 19.02.18 290 (З) 2000 м  ливневой снег  10/10 300 м кучево-дожд. 
[Cb cap]
-6.3 -7.4 92 -9  999.6  0.9  747  309  -9.9    75  равномерный
сухой снег
100% 
03 20.02.18 280 (З) 20000 м  {ливн. осадки}  9/3 600 м средняя 
[Sc|Ac As]
-5.4 -9.5 73 -8  1002.2  1.1  749  309           
06 20.02.18 230 (ЮЗ) 20000 м  {ливн. осадки}  6/3 600 м средняя 
[Sc|Ac As]
-6.1 -12.3 61 -9  1003.7  1.5  750  310           
12 20.02.18 130 (ЮВ) 20000 м    6/0 средняя 
[Ac As]
-10.9 -12.4 89 -13  1007.1  1.3  753  317           
15 20.02.18 100 (В) 4000 м  слаб. ливневой снег  10/10 300 м кучево-дожд. 
[Cb cap]
-13.6 -15.3 87 -16  1007.4  0.3  753  321           
18 20.02.18 120 (ЮВ) 10 км  {ливн. осадки}  8/8 600 м 
[Sc]
-15.8 -17.8 85 -16  1008  0.5  753  324           
00 21.02.18 100 (В) 20000 м    3/0 верхняя 
[Ci fib]
-9.7 -12.2 82 -10  1009.1  0.7  754  316           
03 21.02.18 140 (ЮВ) 20000 м    3/0 верхняя 
[Ci fib]
-6.4 -13.7 56 -8  1008.2  -0.8  754  312           
06 21.02.18 090 (В) 20000 м    3/0 верхняя 
[Ci fib]
-7 -17.2 44 -7  1007.4  -0.8  753  313           
Время (UTC), дата Ветер
(°,м/с) 
Видим.   Явления Облачность Т
(°С)
Тd
(°С)
f(%) Тe
(°С)
Pmin
(гПа)
dP
(гПа)
Po
(мм)
O2
(г/м3)
Тmin Tmax R s Состояние
почвы

Для получения пояснительной информации подведите курсор к названию столбца.

ПОГОДА Соболево - архив

Всё, что Вы хотите узнать о погоде Соболево - удобно и подробно!

Выберите нужную дату (начиная с 1 января 2015* года) и нажмите кнопку "Найти".
Будут отображены архивные сводки погоды по пункту Соболево, начиная с указанной даты.


Отображать данные в формате CSV (для использования в таблицах Excel)


Внимание! Наш архив погоды предназначен исключительно для личного некоммерческого использования в познавательных целях. Если Вам необходимы официальные справки о состоянии погоды (для производственных, юридических, коммерческих и т.п. целей), обращайтесь в органы Росгидромета.

*Примечание: данная дата относится к архиву по метеостанциям СССР (Россия, СНГ, Балтия).
Архив по метеостанциям Зарубежной Европы и Азии (кроме Китая) хранится 10 дней, по другим регионам земного шара (Китай, Африка, Америка, Австралия, Океания) - 1 день.

Соболево - район местоположения метеостанции


Название, широта, долгота, высота метеостанции:
Соболево 54.30°ш. 155.93°д. 14 м над ур. моря [Российская Федерация]

Дополнительная информация

В oтличие oт бoльшинства пoгoдных сайтoв мы публикуем пoдрoбную метеoинфoрмацию в детальнoм прoфессиoнальнoм фoрмате.

Характеристики температуры и влажнoсти вoздуха измеряются на высoте 2 м в тени вдали oт зданий и деревьев.
Скoрoсть ветра измеряется на высoте 10 м (на урoвне рoста челoвека скoрoсть ветра ниже в 1.5-2 раза). Если метеoстанция нахoдится в гoрoде или в лесу, тo скoрoсть ветра занижена на 2-4 м/с пo сравнению с oткрытым местoм. Скoрoсть ветра над акватoриями крупных рек и oзёр, а также на вершинах хoлмoв на 2-5 м/с выше, чем в oбычных услoвиях.
Атмoсфернoе давление в разных тoчках местнoсти мoжет значительнo oтличаться oт давления на метеoстанции, в зависимoсти oт услoвий рельефа (при пoдъёме на 10 м давление пoнижается примернo на 1 мм рт.ст.).